FW3015 Weather Reports


time (UTC)temp
C
wind
direction
speed
KPH
gust
KPH
rain 1hr
cm
rain 24hr
cm
rain mn
cm
humidity
%
barometer
mb
20260505140503 17 215 8.0 24.1 0.00 0.05 0.00 66 1008.6
20260505140213 17 207 9.7 24.1 0.00 0.05 0.00 65 1008.6
20260505125004 15 208 9.7 22.5 0.00 0.05 0.00 71 1008.6
20260505124503 15 206 9.7 20.9 0.00 0.05 0.00 72 1008.7
20260505124003 14 208 9.7 24.1 0.00 0.05 0.00 72 1008.8
20260505123503 14 217 9.7 24.1 0.00 0.05 0.00 71 1008.9
20260505123003 14 220 8.0 22.5 0.00 0.05 0.00 72 1008.9
20260505122713 14 218 8.0 20.9 0.00 0.05 0.00 71 1008.9
20260505122003 14 217 6.4 17.7 0.00 0.05 0.00 72 1008.8
20260505121503 13 215 8.0 20.9 0.00 0.05 0.00 73 1008.8
20260505121003 13 212 6.4 20.9 0.00 0.05 0.00 73 1008.8
20260505120503 13 208 6.4 19.3 0.00 0.05 0.00 74 1008.8
20260505120004 13 208 6.4 19.3 0.00 0.05 0.00 74 1008.9
20260505115503 13 218 6.4 17.7 0.00 0.05 0.00 75 1008.8
20260505115003 13 217 6.4 19.3 0.00 0.05 0.00 76 1008.7
20260505114504 12 215 6.4 22.5 0.00 0.05 0.00 76 1008.7
20260505114003 12 217 4.8 22.5 0.00 0.05 0.00 77 1008.7
20260505113713 12 208 6.4 16.1 0.00 0.05 0.00 78 1008.7
20260505113003 12 201 8.0 20.9 0.00 0.05 0.00 78 1008.5
20260505112503 11 202 9.7 24.1 0.00 0.05 0.00 79 1008.6
20260505112003 11 204 8.0 24.1 0.00 0.05 0.00 79 1008.6
20260505111713 11 204 8.0 24.1 0.00 0.05 0.00 80 1008.6
20260505111003 11 212 8.0 24.1 0.00 0.05 0.00 81 1008.6
20260505110503 11 209 9.7 22.5 0.00 0.05 0.00 81 1008.7
20260505102003 9 207 6.4 20.9 0.00 0.05 0.00 85 1008.6
20260505101503 9 205 8.0 20.9 0.00 0.05 0.00 85 1008.7
20260505101213 9 202 8.0 19.3 0.00 0.05 0.00 85 1008.5
20260505100503 8 211 6.4 19.3 0.00 0.05 0.00 85 1008.5
20260505100005 8 207 8.0 19.3 0.00 0.05 0.00 86 1008.4
20260505095714 8 202 8.0 17.7 0.00 0.05 0.00 86 1008.4
20260505095003 8 200 8.0 19.3 0.00 0.05 0.00 86 1008.3
20260505094503 8 199 9.7 19.3 0.00 0.05 0.00 86 1008.3
20260505094213 8 201 9.7 19.3 0.00 0.05 0.00 86 1008.3
20260505093712 8 200 9.7 17.7 0.00 0.05 0.00 86 1008.2
20260505093004 8 203 6.4 17.7 0.00 0.05 0.00 86 1008.2
20260505092503 8 199 8.0 19.3 0.00 0.05 0.00 86 1008.2
20260505092003 8 200 9.7 19.3 0.00 0.05 0.00 86 1008.2
20260505091504 8 201 9.7 17.7 0.00 0.05 0.00 86 1008.1
20260505091003 8 203 8.0 27.4 0.00 0.05 0.00 86 1008.3
20260505090503 8 201 9.7 27.4 0.00 0.05 0.00 86 1008.2
20260505090005 8 198 8.0 19.3 0.00 0.05 0.00 86 1008.2
20260505085503 8 201 6.4 16.1 0.00 0.05 0.00 86 1008.2
20260505085005 8 206 6.4 16.1 0.00 0.05 0.00 86 1008.2
20260505084503 8 211 4.8 12.9 0.00 0.05 0.00 86 1008.2
20260505084213 8 215 3.2 9.7 0.00 0.05 0.00 85 1008.2
20260505083503 8 204 6.4 22.5 0.00 0.05 0.00 85 1008.1
20260505083213 8 204 6.4 22.5 0.00 0.05 0.00 85 1008.2
20260505082503 8 202 6.4 11.3 0.00 0.05 0.00 85 1008.1
20260505082003 8 195 6.4 19.3 0.00 0.05 0.00 85 1008.2
20260505081503 8 201 6.4 19.3 0.00 0.05 0.00 85 1008.1
20260505081003 8 207 6.4 14.5 0.00 0.05 0.00 84 1008.2
20260505080503 8 200 6.4 14.5 0.00 0.05 0.00 84 1008.2
20260505080003 8 201 6.4 16.1 0.00 0.05 0.00 84 1008.2
20260505075503 8 207 6.4 17.7 0.00 0.05 0.00 84 1008.2
20260505075003 8 220 6.4 17.7 0.00 0.05 0.00 84 1008.2
20260505074503 8 213 6.4 19.3 0.00 0.05 0.00 84 1008.2
20260505074213 8 206 6.4 19.3 0.00 0.05 0.00 84 1008.2
20260505073503 8 203 6.4 12.9 0.00 0.05 0.00 84 1008.2
20260505073003 9 204 6.4 14.5 0.00 0.05 0.00 83 1008.2
20260505072503 9 201 6.4 16.1 0.00 0.05 0.00 83 1008.1
20260505072003 9 202 6.4 16.1 0.00 0.05 0.00 83 1008.2
20260505071503 9 216 6.4 16.1 0.00 0.05 0.00 83 1008.2
20260505071003 9 211 4.8 16.1 0.00 0.05 0.00 83 1008.1
20260505070503 9 203 6.4 16.1 0.00 0.05 0.00 83 1008.1
20260505070003 9 208 6.4 16.1 0.00 0.05 0.00 83 1008.0
20260505065503 9 206 6.4 17.7 0.00 0.05 0.00 83 1008.0
20260505065003 9 200 8.0 17.7 0.00 0.05 0.00 83 1008.1
20260505064503 9 201 8.0 17.7 0.00 0.05 0.00 83 1008.0
20260505064003 9 213 6.4 19.3 0.00 0.05 0.00 83 1008.0
20260505063503 9 221 6.4 19.3 0.00 0.05 0.00 83 1007.9
20260505063003 9 213 8.0 19.3 0.00 0.05 0.00 83 1007.9
20260505062503 9 210 8.0 19.3 0.00 0.05 0.00 84 1007.9
20260505062003 9 214 6.4 19.3 0.00 0.05 0.00 84 1007.9
20260505061504 9 215 6.4 19.3 0.00 0.05 0.00 84 1007.8
20260505061004 9 211 8.0 24.1 0.00 0.05 0.00 84 1007.8
20260505060503 9 211 8.0 24.1 0.00 0.05 0.00 84 1007.8
20260505060004 9 210 8.0 22.5 0.00 0.05 0.00 84 1007.8
20260505055503 8 211 6.4 17.7 0.00 0.05 0.00 84 1007.7
20260505055004 8 216 4.8 14.5 0.00 0.05 0.00 84 1007.7
20260505054503 8 207 6.4 16.1 0.00 0.05 0.00 84 1007.8
20260505054003 8 198 6.4 16.1 0.00 0.05 0.00 84 1007.7
20260505053503 8 194 6.4 19.3 0.00 0.05 0.00 85 1007.6
20260505053003 8 201 6.4 19.3 0.00 0.05 0.00 85 1007.6
20260505052504 8 207 6.4 14.5 0.00 0.05 0.00 85 1007.5
20260505052003 8 208 4.8 12.9 0.00 0.05 0.00 85 1007.5
20260505051713 8 218 4.8 11.3 0.00 0.05 0.00 85 1007.5
20260505051003 8 208 4.8 14.5 0.00 0.05 0.00 86 1007.5
20260505050503 8 196 6.4 14.5 0.00 0.05 0.00 86 1007.5
20260505041503 7 222 4.8 12.9 0.00 0.05 0.00 90 1007.7
20260505041003 7 239 3.2 6.4 0.00 0.05 0.00 90 1007.7
20260505040503 7 239 3.2 9.7 0.00 0.05 0.00 90 1007.6
20260505040005 6 240 3.2 9.7 0.00 0.05 0.00 90 1007.6
20260505035503 6 241 1.6 9.7 0.00 0.05 0.05 89 1007.5
20260505035003 7 241 1.6 4.8 0.00 0.05 0.05 89 1007.5
20260505034503 7 241 1.6 8.0 0.00 0.05 0.05 88 1007.6
20260505034003 7 241 1.6 8.0 0.00 0.05 0.05 88 1007.5
20260505033504 7 241 0.0 3.2 0.00 0.05 0.05 88 1007.5
20260505033003 7 0 0.0 0.0 0.00 0.05 0.05 87 1007.7
20260505032503 7 0 0.0 0.0 0.00 0.05 0.05 87 1007.6
20260505032003 7 0 0.0 0.0 0.00 0.05 0.05 86 1007.6
20260505031714 7 0 0.0 0.0 0.00 0.05 0.05 86 1007.6
20260505031003 8 0 0.0 0.0 0.00 0.05 0.05 85 1007.6
20260505030503 8 241 0.0 6.4 0.00 0.05 0.05 85 1007.6
20260505030003 8 241 0.0 6.4 0.00 0.05 0.05 85 1007.6
20260505025503 8 0 0.0 0.0 0.00 0.05 0.05 84 1007.6
20260505025003 8 0 0.0 0.0 0.00 0.05 0.05 84 1007.7
20260505024503 8 0 0.0 0.0 0.00 0.05 0.05 83 1007.8
20260505024003 8 0 0.0 0.0 0.00 0.05 0.05 82 1007.9
20260505023503 8 241 0.0 3.2 0.00 0.05 0.05 82 1007.8
20260505023003 8 241 0.0 6.4 0.00 0.05 0.05 81 1007.7
20260505022505 8 241 0.0 6.4 0.00 0.05 0.05 81 1007.7
20260505022003 8 241 0.0 3.2 0.00 0.05 0.05 81 1007.7
20260505021503 9 241 0.0 3.2 0.00 0.05 0.05 80 1007.8
20260505021214 9 241 0.0 3.2 0.00 0.05 0.05 80 1007.7
20260505020504 9 241 0.0 3.2 0.00 0.05 0.05 80 1007.7
20260505020003 9 241 0.0 4.8 0.00 0.05 0.05 80 1007.7
20260505015503 9 242 0.0 8.0 0.00 0.05 0.05 80 1007.6
20260505015003 9 233 1.6 8.0 0.00 0.05 0.05 79 1007.6
20260505014503 9 223 1.6 4.8 0.00 0.05 0.05 79 1007.6
20260505014003 9 224 1.6 4.8 0.00 0.05 0.05 79 1007.6
20260505013503 9 223 0.0 6.4 0.00 0.05 0.05 78 1007.5
20260505013214 10 223 1.6 6.4 0.00 0.05 0.05 78 1007.5
20260505012503 10 217 1.6 6.4 0.00 0.05 0.05 78 1007.4
20260505012003 10 214 1.6 6.4 0.00 0.05 0.05 78 1007.4
20260505011506 10 209 1.6 11.3 0.00 0.05 0.05 77 1007.4
20260505011003 10 209 1.6 12.9 0.00 0.05 0.05 77 1007.3
20260505010503 10 217 3.2 12.9 0.00 0.05 0.05 78 1007.2
20260505010003 10 220 3.2 12.9 0.00 0.05 0.05 78 1007.1
20260505005503 10 223 3.2 11.3 0.00 0.05 0.05 78 1007.0
20260505005214 10 227 3.2 11.3 0.00 0.05 0.05 78 1007.0
20260505004503 10 226 4.8 12.9 0.00 0.05 0.05 78 1006.9
20260505004003 10 218 4.8 12.9 0.00 0.05 0.05 79 1006.9
20260505003713 10 222 4.8 12.9 0.00 0.05 0.05 79 1006.9
20260505003003 10 219 4.8 16.1 0.00 0.05 0.05 80 1006.7
20260505002504 10 214 3.2 16.1 0.00 0.05 0.05 81 1006.6
20260505002003 10 227 1.6 12.9 0.00 0.05 0.05 81 1006.7
20260505001505 10 226 1.6 12.9 0.00 0.05 0.05 80 1006.5
20260505001003 11 226 0.0 8.0 0.00 0.05 0.05 80 1006.5
20260505000503 11 226 0.0 8.0 0.00 0.05 0.05 80 1006.3
20260505000004 11 226 0.0 3.2 0.00 0.05 0.05 79 1006.2
20260504235503 11 226 0.0 3.2 0.00 0.05 0.05 78 1006.1
20260504235003 12 0 0.0 0.0 0.00 0.05 0.05 76 1006.0
20260504234503 12 0 0.0 0.0 0.00 0.05 0.05 76 1005.9
20260504234003 12 0 0.0 0.0 0.00 0.05 0.05 75 1005.8
20260504233503 12 226 0.0 1.6 0.00 0.05 0.05 75 1005.7
20260504233005 12 226 0.0 6.4 0.00 0.05 0.05 75 1005.7
20260504232503 12 226 1.6 6.4 0.00 0.05 0.05 73 1005.7
20260504232004 13 226 1.6 8.0 0.00 0.05 0.05 72 1005.5
20260504231503 13 227 1.6 8.0 0.00 0.05 0.05 70 1005.4
20260504231003 13 228 1.6 8.0 0.00 0.05 0.05 70 1005.4
20260504230504 13 229 1.6 8.0 0.00 0.05 0.05 70 1005.4
20260504230003 13 230 1.6 8.0 0.00 0.05 0.05 69 1005.4
20260504225714 13 230 1.6 8.0 0.00 0.05 0.05 68 1005.4
20260504225003 13 215 3.2 14.5 0.00 0.05 0.05 66 1005.2
20260504224503 13 206 1.6 14.5 0.00 0.05 0.05 66 1005.1
20260504224003 14 214 1.6 11.3 0.00 0.05 0.05 66 1005.0
20260504223712 14 213 3.2 14.5 0.00 0.05 0.05 66 1005.1
20260504223003 14 207 3.2 14.5 0.00 0.05 0.05 64 1005.1
20260504222503 14 229 3.2 12.9 0.00 0.05 0.05 65 1005.1
20260504222003 15 264 1.6 11.3 0.00 0.05 0.05 64 1005.3
20260504221504 15 250 3.2 12.9 0.00 0.05 0.05 64 1005.2
20260504221003 15 243 3.2 12.9 0.00 0.05 0.05 63 1005.0
20260504220503 15 248 3.2 11.3 0.00 0.05 0.05 63 1005.0
20260504220003 15 252 3.2 9.7 0.00 0.05 0.05 63 1004.9
20260504215503 15 247 1.6 9.7 0.00 0.05 0.05 63 1004.9
20260504215003 15 228 3.2 14.5 0.00 0.05 0.05 63 1004.8
20260504214503 15 228 3.2 14.5 0.00 0.05 0.05 63 1004.9
20260504214003 15 236 4.8 12.9 0.00 0.05 0.05 63 1004.9
20260504213503 15 237 4.8 16.1 0.00 0.05 0.05 62 1004.8
20260504213004 15 239 4.8 16.1 0.00 0.05 0.05 62 1004.8
20260504212503 15 229 4.8 14.5 0.00 0.05 0.05 63 1004.8
20260504212213 15 230 4.8 14.5 0.00 0.05 0.05 62 1004.8
20260504211503 15 250 3.2 8.0 0.00 0.05 0.05 65 1004.7
20260504211004 15 254 3.2 14.5 0.00 0.05 0.05 64 1004.7
20260504210503 15 244 3.2 14.5 0.00 0.05 0.05 63 1004.8
20260504210004 16 233 3.2 11.3 0.00 0.05 0.05 64 1004.6
20260504205503 16 238 3.2 11.3 0.00 0.05 0.05 63 1004.5
20260504205003 16 255 4.8 12.9 0.00 0.05 0.05 63 1004.6
20260504204503 16 258 4.8 14.5 0.00 0.05 0.05 64 1004.8
20260504204003 15 248 6.4 16.1 0.00 0.05 0.05 65 1004.8
20260504203504 15 239 6.4 16.1 0.00 0.05 0.05 65 1004.6
20260504203003 15 230 6.4 17.7 0.00 0.08 0.05 66 1004.6
20260504202503 15 236 4.8 17.7 0.00 0.08 0.05 68 1004.6
20260504202003 15 246 4.8 14.5 0.00 0.08 0.05 69 1004.7
20260504201713 14 254 3.2 9.7 0.00 0.08 0.05 69 1004.6
20260504201003 14 260 3.2 16.1 0.00 0.08 0.05 70 1004.6
20260504200503 14 248 4.8 16.1 0.00 0.08 0.05 69 1004.5
20260504200003 14 242 4.8 16.1 0.00 0.08 0.05 69 1004.5
20260504195503 14 226 4.8 16.1 0.00 0.08 0.05 70 1004.7
20260504195003 14 225 4.8 14.5 0.00 0.08 0.05 70 1004.6
20260504194503 13 242 4.8 14.5 0.00 0.10 0.05 73 1004.6
20260504194003 13 224 4.8 14.5 0.00 0.10 0.05 74 1004.8
20260504193503 13 236 4.8 14.5 0.00 0.10 0.05 77 1004.7
20260504193003 12 254 3.2 14.5 0.03 0.10 0.05 76 1004.7
20260504192503 12 238 3.2 14.5 0.03 0.10 0.05 77 1004.9
20260504192003 12 224 4.8 14.5 0.03 0.10 0.05 78 1004.8
20260504191503 12 222 6.4 17.7 0.03 0.10 0.05 77 1004.9
20260504191003 12 220 4.8 17.7 0.05 0.13 0.05 77 1005.0
20260504190504 12 212 4.8 19.3 0.05 0.13 0.05 80 1005.1
20260504190003 12 208 6.4 19.3 0.05 0.13 0.05 79 1005.2
20260504185713 12 214 4.8 14.5 0.05 0.13 0.05 78 1005.3
20260504185003 12 242 3.2 16.1 0.05 0.15 0.05 78 1005.4
20260504184503 12 243 3.2 17.7 0.05 0.15 0.05 78 1005.5
20260504184003 12 243 3.2 17.7 0.05 0.15 0.05 76 1005.7
20260504183715 12 227 1.6 11.3 0.05 0.15 0.05 77 1005.8
20260504183003 12 232 1.6 11.3 0.03 0.15 0.03 76 1005.7
20260504182503 12 240 1.6 11.3 0.03 0.15 0.03 75 1005.7
20260504182003 12 247 1.6 9.7 0.03 0.18 0.03 74 1005.7
20260504181503 12 221 1.6 11.3 0.03 0.18 0.03 73 1005.6
20260504181213 12 225 3.2 11.3 0.00 0.18 0.00 71 1005.7
20260504180505 12 254 4.8 17.7 0.00 0.20 0.00 71 1005.4
20260504180004 12 246 4.8 17.7 0.00 0.20 0.00 69 1005.4
20260504175714 12 241 4.8 14.5 0.00 0.23 0.00 68 1005.4
20260504175004 12 239 4.8 19.3 0.00 0.25 0.00 68 1005.4
20260504174503 12 227 3.2 17.7 0.00 0.30 0.00 68 1005.4
20260504174004 12 258 3.2 17.7 0.00 0.33 0.00 70 1005.3
20260504173503 12 264 3.2 17.7 0.00 0.33 0.00 70 1005.3
20260504173003 12 227 3.2 17.7 0.00 0.36 0.00 69 1005.2
20260504172503 13 214 4.8 16.1 0.00 0.36 0.00 67 1004.9
20260504172003 13 228 4.8 17.7 0.00 0.38 0.00 65 1004.9
20260504171714 13 245 4.8 17.7 0.00 0.38 0.00 63 1004.9
20260504171003 13 257 6.4 17.7 0.00 0.41 0.00 59 1004.9
20260504170503 14 232 8.0 17.7 0.00 0.41 0.00 58 1004.8
20260504150503 14 218 8.0 20.9 0.00 0.71 0.00 52 1005.8